Zurück zum Katalog

PEGASUS DEB

AktivPO
NORAD 40242·DEBRIS·🇺🇸 United States

Gestartet May 19, 1994 von Vandenberg Space Force Base

Loading…

Nächste Überflüge (nächste 24 Stunden)

TLE

AktuellSource: Space-Track

Epoche: Sep 13, 2026, 05:22 UTC

1 40242U 94029AGJ 26256.22422735  .00006313  00000-0  12618-2 0  9997
2 40242  81.8753 222.4706 0313190 318.3423  39.4281 14.35085248615199

Verfolge PEGASUS DEB in Echtzeit mit AllMySat

Download on the App Store